STARLINK-36624, 67636

Orbit data source: Space-Track

STARLINK-36624, 67636 is a payload satellite owned by SpaceX/Seattle (US) in LEO that was launched on Fri, 30 Jan 2026 UTC via an FALCON 9 launch vehicle from the Air Force Eastern Test Range (AFETR). Payload-class satellites include a variety of spacecraft equipped with specific instruments for various scientific and technological missions. These include communications satellites like Starlink; space stations such as the ISS; scientific satellites like the Hubble; Earth observation satellites from companies like Planet Labs, Umbra, and HawkEye 360; GPS; miniature CubeSats for education and research; and military/defense satellites.

Loading next visibility...
Identifier
67636, 2026-020V
Orbit
LEO
Country
Flag of USUS
Related business
Manufacturer
SpaceX/Seattle
Mission
Operational Commercial Communications
Bus & Motor
STARLINK V2MO, Unknown motor
Mass
575 kg wet, ~530 kg dry
Launch date (UTC)
2026-01-30 (3 months ago)
Launch vehicle
FALCON 9
Launch site
Air Force Eastern Test Range (AFETR)
Object type
Payload
Rocket body
Debris
Shape & HBR
Box + 2 Pan, 17.7 m
Radar Cross Section
36.964 m²

Expand to show TLE details & history
Last TLE update: 9 hours ago

TLE from 9 hours ago
0 STARLINK-36624
1 67636U 26020V   26112.07921645 -.00050282  00000-0 -18342-2 0  9993
2 67636  43.0006 254.3571 0000460 346.6846  13.3993 15.27508308 12759
Epoch: 2026-04-22T01:54Z
TLE epoch observation values (Epoch: 2026-04-22T01:54:04.301Z)
Latitude
-0.00004°
Longitude
15.69334°
Altitude
482.732 km
Speed
7.626 km/s
True Right ascension
16h 57m 25s
True Declination
0° 00' 00"
Sunlit
Object was in full shadow at epoch
Visualization orbit readout
Latitude
Unknown
Longitude
Unknown
Altitude
Unknown
Speed
Unknown
Apparent Right ascension
Unknown
Apparent Declination
Unknown
Sunlit
N/A
Visualization observer readout
Local Sidereal Time
18:16:48
Azimuth
Unknown
Elevation
Unknown
Doppler factor
Unknown
Orbital elements
Apogee altitude
485.525 km
Perigee altitude
484.893 km
Semi-major axis
6,863.346 km
Eccentricity
0.00005
Inclination
43.0006°
RAAN
254.3571°
Arg. of periapsis
346.6846°
True anomaly
13.40052°
Mean anomaly
13.3993°
Eccentric anomaly
13.39991°
Mean motion
3.81715 °/min
Orbital period
94.31 mins
BSTAR
-0.0018342
Loading maneuver chart data...
Computing Atmospheric mass density...
Loading historical data...
Loading historical data...
Loading historical data...
Loading historical data...
Loading historical data...
Loading historical data...
Loading historical data...

Documentation

Showing up to 5 results
|